カタログに戻る

YAOGAN-36 01A

運用中軍事VLEO
NORAD 53943·PAYLOAD·🇨🇳 China

打ち上げ Sep 26, 2022 から Xichang Satellite Launch Center

Loading…

次のパス (今後24時間)

TLE

最新Source: Space-Track

元期: Sep 14, 2026, 14:34 UTC

1 53943U 22120A   26257.60730916  .00006854  00000-0  27012-3 0  9993
2 53943  34.9900  81.2429 0004025  69.1714 290.9432 15.24886224220966

AllMySatでYAOGAN-36 01Aをリアルタイム追跡

Download on the App Store